Weather History for Minot AFB, ND

Change the Weather History Date:

Tuesday, November 6, 2012

  Actual Average Record
Temperature  
Mean Temperature 38 °F -  
Max Temperature 48 °F 37 °F 59 °F (2010)
Min Temperature 25 °F 19 °F 3 °F (2003)
Degree Days  
Heating Degree Days 28    
Moisture  
Dew Point 29 °F    
Average Humidity 73    
Maximum Humidity 93    
Minimum Humidity 53    
Precipitation  
Precipitation 0.00 in - - ()
Sea Level Pressure  
Sea Level Pressure 30.04 in    
Wind  
Wind Speed 20 mph (WNW)    
Max Wind Speed 26 mph    
Max Gust Speed 34 mph    
Visibility 10 miles    
Events      
Averages and records for this station are not official NWS values.
T = Trace of Precipitation, MM = Missing Value Source: NWS Daily Summary

Daily Weather History Graph

Daily Weather History Graph

Search for Another Location

Airport:

Trip Planner

Search our weather history database for the weather conditions in past years. The results will help you decide how hot, cold, wet, or windy it might be!

Date:

Astronomy

Nov. 06, 2012 Rise Set
Actual Time 7:39 AM CST 5:17 PM CST
Civil Twilight 7:06 AM CST 5:50 PM CST
Nautical Twilight 6:29 AM CST 6:28 PM CST
Astronomical Twilight 5:52 AM CST 7:04 PM CST
Moon No Moon Rise 1:28 PM CST (11/6)
Length of Visible Light 10h 44m
Length of Day
9h 37m
Waning Gibbous, 53% of the Moon is Illuminated
Nov 6
Waning Gibbous
Nov 6
Last Quarter
Nov 13
New
Nov 20
First Quarter
Nov 28
Full

Hourly Weather History & Observations

Time (CST) Temp. Windchill Dew Point Humidity Pressure Visibility Wind Dir Wind Speed Gust Speed Precip Events Conditions
12:55 AM 38.1 °F 27.6 °F 29.3 °F 71% 29.90 in 10.0 mi WNW 21.9 mph - N/A   Clear
1:55 AM 38.3 °F 27.1 °F 29.5 °F 71% 29.91 in 10.0 mi WNW 25.3 mph 32.2 mph N/A   Scattered Clouds
2:55 AM 37.6 °F 26.3 °F 29.7 °F 73% 29.93 in 10.0 mi WNW 24.2 mph 32.2 mph N/A   Clear
3:55 AM 36.9 °F 25.4 °F 29.3 °F 74% 29.95 in 10.0 mi WNW 24.2 mph 31.1 mph N/A   Clear
4:55 AM 37.8 °F 26.1 °F 29.1 °F 71% 29.96 in 10.0 mi WNW 26.5 mph 34.5 mph N/A   Overcast
5:55 AM 35.8 °F 24.8 °F 28.8 °F 76% 29.99 in 10.0 mi NW 20.7 mph 26.5 mph N/A   Clear
6:55 AM 34.7 °F 24.0 °F 28.6 °F 78% 29.99 in 10.0 mi WNW 18.4 mph - N/A   Clear
7:55 AM 34.9 °F 23.9 °F 28.4 °F 77% 30.03 in 10.0 mi WNW 19.6 mph 26.5 mph N/A   Clear
8:55 AM 36.3 °F 26.1 °F 28.8 °F 74% 30.05 in 10.0 mi WNW 18.4 mph - N/A   Clear
9:55 AM 38.7 °F 27.8 °F 29.8 °F 71% 30.05 in 10.0 mi WNW 24.2 mph 28.8 mph N/A   Clear
10:55 AM 42.1 °F 32.6 °F 31.3 °F 66% 30.06 in 10.0 mi WNW 23.0 mph 29.9 mph N/A   Clear
11:55 AM 44.2 °F 35.9 °F 32.4 °F 63% 30.07 in 10.0 mi WNW 20.7 mph 26.5 mph N/A   Clear
12:55 PM 46.8 °F - 32.0 °F 57% 30.06 in 10.0 mi WNW 19.6 mph 28.8 mph N/A   Clear
1:55 PM 48.0 °F - 32.5 °F 55% 30.06 in 10.0 mi WNW 19.6 mph - N/A   Clear
2:55 PM 48.4 °F - 31.8 °F 53% 30.06 in 10.0 mi WNW 23.0 mph - N/A   Clear
3:55 PM 47.7 °F - 31.3 °F 53% 30.06 in 10.0 mi NW 20.7 mph 26.5 mph N/A   Clear
4:55 PM 44.2 °F 37.6 °F 31.8 °F 62% 30.08 in 10.0 mi WNW 13.8 mph - N/A   Clear
5:55 PM 35.4 °F 28.4 °F 29.3 °F 78% 30.10 in 10.0 mi WNW 9.2 mph - N/A   Clear
6:55 PM 31.8 °F 26.2 °F 27.9 °F 85% 30.12 in 10.0 mi WNW 5.8 mph - N/A   Clear
7:55 PM 31.8 °F 25.4 °F 28.2 °F 87% 30.12 in 10.0 mi WNW 6.9 mph - N/A   Scattered Clouds
8:55 PM 28.9 °F 21.9 °F 26.4 °F 90% 30.12 in 10.0 mi West 6.9 mph - N/A   Clear
9:55 PM 28.9 °F 21.9 °F 26.4 °F 90% 30.12 in 10.0 mi WSW 6.9 mph - N/A   Scattered Clouds
10:55 PM 27.5 °F 21.1 °F 25.5 °F 92% 30.10 in 10.0 mi WSW 5.8 mph - N/A   Clear
11:55 PM 25.7 °F 20.1 °F 23.9 °F 93% 30.10 in 10.0 mi SW 4.6 mph - N/A   Clear